Terug naar catalogus

STARLINK-34428

ActiefCommunicatieVLEO
NORAD 64293·PAYLOAD·🇺🇸 United States

Gelanceerd Jun 8, 2025 vanaf Vandenberg Space Force Base

Loading…

Volgende Passages (komende 24 uur)

TLE

VersSource: CelesTrak SupGP

Epoch: Sep 15, 2026, 02:54 UTC

1 64293C 25123C   26258.12131944 -.00047327  00000+0 -16051-2 0  2582
2 64293  69.9999  75.1052 0003288 272.0711 205.1952 15.30427382    18

Volg STARLINK-34428 in realtime met AllMySat

Download on the App Store